Theta_e
314 316 318 318 319 319 319 319 318 317 317 316 316 315 315 315 315 321 327 327 329 330 330 331 332 333 335 338 343 346 351 353 352 355 355 354 356 354 353 354 353 349 352 351 353
314 316 318 319 318 318 319 319 319 319 319 318 317 316 315 315 323 326 325 323 329 330 332 332 335 334 336 338 341 347 351 351 349 352 353 353 354 355 356 355 356 354 351 351 353
314 315 316 317 317 317 317 319 320 320 319 319 318 316 315 315 328 330 326 326 323 327 331 331 332 334 337 338 340 346 350 349 351 352 353 353 354 353 355 358 355 356 355 352 353
313 313 314 315 316 316 316 318 319 320 320 319 319 316 315 325 332 328 324 327 324 327 331 332 334 335 337 338 336 343 344 348 349 352 351 354 352 354 353 354 351 350 350 352 353
313 313 314 314 314 315 316 317 318 320 321 319 319 316 320 327 328 326 325 329 325 329 332 333 334 334 336 336 338 339 339 343 345 348 349 350 354 355 354 352 350 350 349 351 350
311 312 313 314 314 314 315 316 317 319 319 318 318 315 324 327 323 330 333 331 329 330 331 331 333 332 334 334 338 338 339 340 341 343 347 351 352 355 352 351 351 351 350 350 349
311 312 312 313 313 314 314 315 317 319 318 318 316 317 322 326 323 323 325 328 329 331 332 330 331 332 332 334 330 333 339 336 337 341 344 349 355 356 351 351 353 352 351 350 349
310 311 312 312 313 313 314 315 317 319 317 317 315 323 323 318 319 321 324 325 327 327 328 329 329 331 332 331 332 334 340 336 333 338 343 347 345 346 351 353 354 353 352 352 350
311 311 312 312 312 313 313 315 319 316 316 315 322 322 322 319 320 323 324 327 326 326 326 326 330 332 332 331 335 337 336 334 334 333 339 347 346 344 350 353 354 354 352 352 352
312 312 312 313 312 312 314 318 318 317 318 321 323 324 321 322 322 323 323 327 329 329 330 330 331 333 332 332 337 336 335 333 334 333 333 335 338 337 344 351 353 354 353 353 351
313 313 313 313 313 312 318 324 327 327 322 322 323 322 325 325 325 322 323 327 329 329 332 331 332 332 331 331 330 331 333 333 333 332 334 334 335 335 336 348 352 353 354 353 352
315 315 314 314 313 312 314 325 327 326 330 326 323 322 321 323 325 323 323 329 329 329 329 330 331 331 331 330 329 331 334 333 333 333 333 334 337 338 337 339 347 350 352 353 352
317 316 316 314 313 314 319 323 323 325 331 329 327 327 326 324 326 326 326 329 329 329 328 328 328 328 329 328 329 332 334 332 333 332 332 338 333 333 335 345 346 348 349 350 352
316 316 316 313 316 320 321 322 323 325 334 330 329 328 325 326 327 326 324 328 327 327 326 328 328 327 328 329 330 333 332 330 332 333 334 332 335 334 335 336 337 341 343 348 350
316 317 316 316 323 327 326 325 324 326 332 328 328 325 326 327 328 327 324 327 328 328 326 328 329 329 329 329 330 332 330 331 332 333 333 332 335 332 333 334 335 340 341 346 348
319 319 315 314 319 322 323 324 324 331 334 329 328 329 328 328 327 327 324 325 327 327 328 329 329 329 329 329 329 330 330 331 332 333 334 333 331 331 333 331 336 341 343 347 348
323 320 316 318 327 324 324 327 333 335 332 331 331 328 328 329 327 329 328 327 328 330 331 330 329 329 328 329 330 330 331 333 335 336 334 332 332 332 330 331 333 344 344 349 350
324 321 320 322 323 324 326 333 336 334 335 333 329 329 328 328 328 327 329 330 330 329 330 331 332 330 329 330 331 331 331 333 336 335 334 332 332 331 330 331 335 339 344 349 351
324 324 326 327 325 324 333 333 336 335 333 332 330 331 331 329 331 331 332 333 331 329 331 331 332 329 329 330 330 332 332 331 332 332 333 332 331 331 330 333 333 337 341 349 351
329 331 330 325 325 329 333 330 334 331 331 332 334 333 334 333 333 333 335 334 335 334 332 331 334 332 330 330 330 331 331 332 331 334 336 333 333 332 331 334 334 336 341 341 349
331 333 328 326 326 332 332 333 332 329 329 334 334 334 334 334 334 334 335 332 331 334 334 334 337 335 334 335 334 332 332 331 331 332 334 334 333 332 331 335 336 337 340 342 345
334 334 328 326 333 332 331 331 322 327 329 331 332 334 334 333 335 335 335 333 328 331 334 335 334 336 335 334 334 333 334 333 334 335 335 334 333 331 333 334 337 338 342 341 345
335 333 328 327 331 330 329 327 326 327 328 330 331 330 331 333 336 334 333 326 325 330 333 332 332 334 332 331 333 333 335 336 333 332 334 336 334 334 334 334 337 342 343 344 344
331 335 332 331 329 332 331 329 328 324 326 327 328 329 331 333 331 334 332 327 325 326 330 329 329 330 331 330 330 337 336 336 337 339 335 334 334 334 334 337 338 343 345 345 346
327 329 327 335 333 330 329 328 329 328 326 326 328 327 328 331 330 329 328 327 325 325 326 325 327 327 327 326 325 325 327 329 333 336 339 337 337 337 337 338 341 344 345 346 346
326 328 325 328 327 329 324 329 328 326 327 327 328 326 326 328 328 328 327 327 326 325 325 326 327 327 328 326 325 325 324 323 324 326 327 331 335 335 335 337 343 344 345 346 346
320 321 325 320 326 327 329 329 327 325 325 325 325 326 326 327 326 326 325 325 325 325 326 327 327 328 329 325 326 326 325 325 325 324 324 325 327 331 337 339 343 344 343 345 346
Wind_Speed
7 7 7 6 6 7 7 7 7 7 8 8 8 9 10 10 9 5 7 2 1 2 4 6 5 7 2 3 2 1 2 7 7 7 5 2 4 2 1 4 4 1 3 5 21
7 7 6 6 6 7 7 7 7 7 8 8 8 9 10 11 8 9 6 3 3 2 5 7 8 8 1 2 2 4 5 8 6 4 5 2 3 3 6 5 5 7 5 13 21
8 7 7 6 6 7 8 7 7 7 8 8 8 8 9 10 8 5 1 4 8 6 6 6 6 5 2 1 4 4 7 7 4 6 4 2 2 3 6 5 6 7 11 15 19
9 8 7 7 7 7 8 8 8 8 8 7 6 7 7 4 2 4 3 4 12 7 6 5 5 3 2 5 5 3 5 5 5 3 3 3 3 4 6 4 6 2 13 16 16
10 9 8 8 7 7 7 8 8 7 7 6 5 5 4 7 0 4 5 6 12 7 6 4 4 5 5 4 2 10 9 4 4 5 6 4 6 6 7 5 4 7 13 15 14
12 10 9 8 8 8 8 8 8 7 6 4 3 2 5 8 3 3 4 8 7 9 3 3 5 7 4 6 6 9 9 5 4 5 6 6 4 3 3 8 8 11 14 14 14
14 11 9 9 8 8 8 7 7 7 4 2 2 1 7 3 3 2 2 2 7 5 3 0 3 7 7 4 6 8 6 4 8 6 4 6 9 7 4 9 11 13 14 13 14
15 13 10 9 9 8 7 6 5 4 2 3 3 2 5 4 3 5 5 3 5 4 3 1 3 6 5 7 6 6 3 5 10 7 3 6 2 3 6 10 12 13 14 15 16
15 13 11 10 9 7 5 3 2 0 3 4 2 5 4 2 7 8 9 4 7 5 3 1 4 6 8 8 10 4 5 7 6 6 8 3 12 3 4 11 12 14 15 16 16
15 13 11 10 8 5 2 1 3 5 2 1 4 5 5 4 4 6 9 9 6 8 6 7 5 10 7 8 6 6 10 10 9 8 11 11 15 11 9 12 14 14 15 17 18
15 13 11 10 6 2 4 2 5 5 8 4 4 3 4 2 5 8 11 11 7 7 11 5 10 12 11 5 8 9 11 12 11 5 13 11 12 14 8 13 14 15 16 17 19
14 12 10 9 5 4 6 5 4 5 3 8 7 6 5 2 5 9 11 11 10 12 7 8 14 14 1 9 9 9 11 11 10 6 11 12 15 15 11 11 14 16 17 18 18
16 12 10 7 4 4 9 6 1 4 5 6 4 5 5 8 3 10 14 14 10 12 10 13 2 5 5 9 9 12 12 9 13 15 16 9 15 2 5 4 9 14 16 18 19
12 8 4 3 3 6 5 5 3 3 5 6 6 5 8 5 6 3 15 10 6 9 11 9 10 11 13 12 11 13 0 6 13 15 12 9 11 13 2 7 8 10 12 15 18
8 5 4 11 2 4 4 2 3 6 6 5 6 5 6 8 6 7 8 12 10 6 7 4 3 5 11 11 7 12 2 10 12 15 14 17 7 7 1 6 12 7 3 10 16
5 1 8 8 3 2 2 4 5 6 3 6 5 8 13 9 5 7 8 8 5 9 10 14 5 8 10 3 7 7 12 13 14 11 12 3 5 7 3 11 12 7 1 7 14
3 5 10 8 3 1 3 5 6 5 4 7 6 10 13 10 8 11 12 14 9 9 13 10 15 17 9 12 14 10 14 10 7 9 7 5 8 6 8 7 10 9 3 7 12
6 8 8 4 2 1 7 6 5 1 2 4 4 9 8 11 7 6 10 10 9 9 9 7 6 9 5 11 6 10 9 7 8 8 8 3 6 5 9 5 8 5 2 6 10
7 5 3 1 3 4 7 6 2 2 2 2 9 11 9 9 4 8 5 1 1 5 7 3 6 3 7 11 10 8 11 8 11 11 9 11 4 11 4 7 9 8 2 5 11
2 5 4 2 1 7 6 2 2 3 4 4 4 4 7 8 9 8 8 3 3 1 6 2 7 2 2 4 11 11 9 8 10 13 14 8 4 10 3 8 9 11 11 2 8
5 3 3 1 3 6 5 3 1 3 4 3 2 5 2 4 2 2 3 6 1 2 3 4 5 9 7 10 8 6 11 10 12 9 11 13 8 6 3 6 8 11 13 9 4
4 2 3 3 5 1 5 1 1 3 1 1 1 2 1 1 3 3 3 3 2 3 4 2 7 11 15 15 7 14 16 15 10 13 11 10 13 1 1 5 5 9 13 12 8
1 3 2 4 3 5 4 4 3 1 4 1 1 4 0 2 4 4 3 4 2 3 4 4 7 10 13 15 11 13 9 12 12 12 16 15 12 6 3 1 13 13 14 13 12
3 4 3 2 1 3 2 3 4 4 4 3 2 1 3 4 1 2 5 3 1 3 4 3 12 15 14 16 13 13 14 12 12 11 15 15 13 14 4 11 16 14 13 13 12
3 3 4 3 4 1 3 1 4 4 2 2 2 1 2 5 6 7 5 6 6 6 5 6 13 13 13 16 16 18 19 20 21 19 18 18 19 14 11 16 14 12 12 12 12
3 3 2 2 0 4 4 2 4 3 3 2 3 1 3 6 5 5 6 6 7 3 7 5 9 8 15 17 18 20 21 21 21 22 24 22 23 21 18 8 11 11 12 12 13
5 2 4 3 2 5 2 1 1 2 1 2 2 5 5 3 5 8 9 11 11 10 10 11 10 8 14 9 11 14 16 16 16 17 17 19 20 6 11 10 9 8 11 12 13
Wind_Direction
350 350 347 345 349 345 340 337 336 335 334 332 329 328 326 318 313 296 258 20 205 200 330 305 286 342 287 51 51 305 2 35 32 5 30 113 217 176 252 184 140 141 340 98 153
351 349 345 343 345 342 335 331 331 330 329 327 326 326 327 328 307 258 271 208 185 179 288 328 356 336 75 58 78 349 25 19 358 12 15 336 256 172 219 201 192 179 112 135 157
356 349 342 337 335 334 334 329 326 322 324 322 320 320 326 333 266 106 274 244 205 234 286 311 313 319 0 23 37 55 21 2 33 0 333 341 251 209 245 219 244 208 148 153 164
350 342 336 333 327 326 325 322 319 318 320 316 314 316 320 298 217 92 324 249 196 221 259 286 285 313 319 52 49 38 11 356 355 341 305 302 330 262 266 295 329 191 153 161 173
343 335 331 327 322 318 315 315 315 314 316 308 302 312 310 229 135 2 340 167 177 205 245 312 308 323 35 359 335 15 -0 344 329 298 290 289 265 284 264 214 212 152 160 168 178
337 329 324 320 316 312 309 309 309 309 306 287 274 299 263 238 100 49 93 150 194 200 212 272 351 350 322 5 2 334 326 333 7 334 287 282 282 253 143 190 190 177 175 173 178
335 330 321 314 311 307 307 307 304 303 287 245 219 280 256 290 149 71 145 187 183 220 215 73 323 299 334 320 357 315 319 53 29 15 324 314 237 233 172 180 187 189 188 180 184
329 323 317 312 307 306 306 304 297 292 236 185 182 253 257 181 216 237 179 170 183 214 277 23 308 299 316 305 252 303 237 357 19 350 61 294 7 153 173 185 191 195 191 189 192
323 318 311 307 304 304 307 307 311 159 156 155 209 253 226 244 219 205 200 209 168 172 175 214 277 297 264 284 276 199 331 359 356 35 330 289 309 77 194 203 202 195 196 198 196
320 315 305 300 302 308 297 175 114 93 124 180 251 235 216 171 150 165 179 176 185 160 172 226 242 256 238 260 286 338 317 326 335 349 328 295 281 290 206 225 221 204 201 200 202
318 309 301 298 294 265 128 145 202 177 212 286 118 327 116 112 159 185 175 190 202 225 228 187 251 238 259 21 304 296 293 308 327 3 329 321 298 296 281 215 233 227 211 207 206
316 305 294 290 280 234 186 246 6 6 228 217 247 270 241 321 179 168 181 202 207 229 205 236 239 254 243 266 276 274 280 291 307 323 315 305 305 292 280 250 232 233 229 218 208
316 300 283 275 260 199 216 234 216 341 252 149 188 235 214 211 234 168 196 206 214 229 225 252 258 9 247 247 244 248 265 296 318 316 293 295 301 331 244 256 253 240 238 223 213
322 308 273 171 140 168 203 195 210 286 243 130 167 145 179 226 211 147 210 198 210 251 233 261 269 245 248 249 252 260 12 293 302 311 311 330 307 304 54 292 241 251 238 224 208
319 296 187 164 93 203 116 259 238 199 207 132 125 124 162 217 118 161 181 215 228 201 238 138 201 212 236 246 246 261 69 281 299 295 299 286 265 312 155 333 356 348 283 214 204
336 177 158 174 210 224 283 180 205 226 128 128 130 167 171 193 150 139 172 223 270 248 232 270 265 263 260 272 239 291 278 273 259 271 271 89 307 306 50 338 350 356 1 199 193
51 128 158 163 108 280 177 192 217 271 160 141 137 171 188 169 144 170 180 193 211 214 221 236 235 227 229 247 236 231 260 267 246 216 280 94 289 317 315 28 353 351 21 179 186
81 120 135 172 244 31 205 228 240 109 93 137 171 167 177 171 160 156 183 209 216 266 282 280 187 165 156 232 308 213 264 295 284 277 308 78 264 11 8 21 9 9 86 159 187
113 123 146 342 234 226 244 231 76 110 30 165 163 181 152 166 223 192 220 190 36 237 260 281 233 135 220 275 250 180 227 283 288 245 262 271 277 257 115 69 24 36 333 181 188
173 173 94 144 286 245 252 45 118 2 328 206 218 270 179 160 189 219 188 126 150 320 265 36 273 152 89 244 234 259 338 244 219 265 264 268 268 271 340 12 5 19 23 325 200
216 203 96 300 270 227 231 70 96 59 330 287 178 167 148 165 284 187 121 120 146 128 252 296 261 273 240 238 282 187 226 226 279 292 288 282 267 78 325 4 357 17 28 5 272
268 194 151 298 205 250 189 44 301 23 50 116 309 22 311 178 232 234 218 32 39 319 269 47 292 273 273 297 288 274 280 283 252 255 236 281 284 325 47 343 27 16 18 9 334
271 100 167 278 227 178 140 143 21 39 51 6 114 355 341 186 250 256 186 114 29 309 360 8 266 280 262 232 207 245 233 272 278 282 267 278 274 123 172 318 44 15 1 7 356
258 181 152 181 13 305 194 174 168 52 61 39 83 208 202 207 216 246 216 158 280 310 41 291 269 265 276 302 319 285 268 253 274 270 271 261 265 270 277 358 356 352 1 357 1
349 63 4 163 161 210 248 312 221 196 105 15 147 17 295 251 245 243 252 251 226 132 243 262 267 275 278 282 282 276 272 272 271 264 268 279 283 297 309 335 346 355 355 4 0
6 324 153 85 111 230 161 177 239 166 305 176 260 221 267 267 289 299 285 263 276 206 238 225 274 272 278 273 270 275 271 266 262 266 272 266 264 280 291 314 328 354 358 359 353
28 42 291 138 192 234 128 158 150 237 129 21 343 280 245 337 324 308 292 284 276 268 272 267 271 273 275 296 290 267 260 259 274 267 272 267 276 322 307 311 328 1 3 355 349